Weather in Psedakh

Russia / Republic of Ingushetia     43°28′11″N   44°34′11″E
temp.,
°C
wind,
m/s
gust,
m/s
humid.,
%
clouds,
%
prec.,
mm/h
press.,
hPa
HPBL,
m
17 may, mon
mon1700:00+18ssw226675 0.0 100417
03:00+17sse116133 0.0 100411
06:00+18sse11539 0.0 100414
09:00+25ene23390 0.0 1004371
12:00+28ne44405 0.0 1004735
15:00+28nne333819 0.0 10031168
18:00+19wsw101481100 0.5 1005434
21:00+17ssw4682100 1.6 1006129
18 may, tue
tue1800:00+15w399323 0.1 1007293
03:00+16wnw4119398 1.0 1008619
06:00+15wnw41093100 2.0 1010686
09:00+17wnw577599 2.1 1011936
12:00+17wnw567099 0.1 1012933
15:00+18w3467100 0.2 1012842
18:00+18ssw017797 0.1 101276
21:00+14ssw11875 0.1 101311
19 may, wed
wed1900:00+13s21825 0.0 101211
03:00+13sse22803 0.0 101111
06:00+15se11745 0.0 101051
09:00+20n215732 0.0 1009629
12:00+22n445330 0.0 10101538
15:00+14nnw51097100 3.1 1015508
18:00+15nw1392100 0.6 1016281
21:00+13ssw229474 0.6 101825
20 may, thu
thu2000:00+13s22922 0.0 101825
03:00+12se11890 0.0 101810
06:00+13se22870 0.0 101997
09:00+18ese456724 0.0 10191134
12:00+21e45540 0.0 10171338
15:00+22e55480 0.0 10171417
18:00+20e47600 0.0 1018314
21:00+15se35670 0.0 101868
21 may, fri
fri2100:00+14se33710 0.0 101743
03:00+13sse22720 0.0 101712
06:00+15se24700 0.0 1018119
09:00+21e58500 0.0 1017809
12:00+24e67440 0.0 10161101
15:00+25e56400 0.0 10151340
18:00+22e49565 0.0 1015302
21:00+16se48640 0.0 1016122